Location: Moscow
(55.7500°N, 37.5830°E)
Time: 17:09:56
(UTC+03:00)

Transit 2A - Pass Details

Date: 06 December 2021
Orbit: 591 x 967 km, 66.7° (Epoch: 21 January)

Event Time Altitude Azimuth Distance (km) Brightness Sun altitude
Rises 09:12:53 0° 316° (NW) 3,659 8.8 2.2°
Reaches altitude 10° 09:15:39 10° 308° (NW) 2,716 8.2 2.5°
Maximum altitude 09:21:21 35° 245° (WSW) 1,496 7.4 3.0°
Drops below altitude 10° 09:26:53 10° 182° (S) 2,629 9.6 3.5°
Sets 09:29:32 0° 174° (S) 3,527 10.5 3.7°
